Tracking 28790 objects as of 19-Apr-2024
HD Live streaming from Space Station
objects crossing your sky now

FENGYUN 1C DEB

Track FENGYUN 1C DEB now!
10-day predictions


NORAD ID: 29964
Int'l Code: 1999-025KN
Perigee: 801.7 km
Apogee: 1,003.0 km
Inclination: 98.4 °
Period: 102.9 minutes
Semi major axis: 7273 km
RCS: 0.0871 m2 (small)
Launch date: May 10, 1999
Source: People's Republic of China (PRC)
Launch site: Taiyaun Space Center, China (TSC)

Note: This is SATELLITE DEBRIS
Your satellite tracking list
Your tracking list is empty




NASA's NSSDC Master Catalog

Two Line Element Set (TLE):
1 29964U 99025KN  24109.65142061  .00003018  00000-0  19265-2 0  9993
2 29964  98.4240 353.7051 0138386 169.2177 191.2009 13.99601916878702
Source of the keplerian elements: AFSPC